Weather History for Jamestown, ND

Change the Weather History Date:

Tuesday, February 5, 2013

  Actual Average Record
Temperature  
Mean Temperature 22 °F 12 °F  
Max Temperature 34 °F 22 °F 58 °F (1991)
Min Temperature 10 °F 2 °F -35 °F (1936)
Degree Days  
Heating Degree Days 43 53  
Month to date heating degree days 272 267  
Since 1 July heating degree days 5599 5629  
Cooling Degree Days 0 0  
Month to date cooling degree days 0 0  
Year to date cooling degree days 0 0  
Moisture  
Dew Point 14 °F    
Average Humidity 80    
Maximum Humidity 89    
Minimum Humidity 70    
Precipitation  
Precipitation 0.01 in 0.01 in 0.07 in (1974)
Month to date precipitation 0.10 0.05  
Year to date precipitation 0.11 0.50  
Sea Level Pressure  
Sea Level Pressure 29.88 in    
Wind  
Wind Speed 9 mph (NNW)    
Max Wind Speed 22 mph    
Max Gust Speed 24 mph    
Visibility 9 miles    
Events Snow    
T = Trace of Precipitation, MM = Missing Value Source: NWS Daily Summary

Daily Weather History Graph

Daily Weather History Graph

Search for Another Location

Airport:

Trip Planner

Search our weather history database for the weather conditions in past years. The results will help you decide how hot, cold, wet, or windy it might be!

Date:

Astronomy

Feb. 05, 2013 Rise Set
Actual Time 7:53 AM CST 5:44 PM CST
Civil Twilight 7:21 AM CST 6:16 PM CST
Nautical Twilight 6:45 AM CST 6:52 PM CST
Astronomical Twilight 6:10 AM CST 7:28 PM CST
Moon 3:44 AM CST (2/5) 12:55 PM CST (2/5)
Length of Visible Light 10h 54m
Length of Day
9h 50m
Waning Crescent, 26% of the Moon is Illuminated
Feb 5
Waning Crescent
Feb 10
New
Feb 17
First Quarter
Feb 25
Full
Mar 4
Last Quarter

Hourly Weather History & Observations

Time (CST) Temp. Windchill Dew Point Humidity Pressure Visibility Wind Dir Wind Speed Gust Speed Precip Events Conditions
12:56 AM 33.1 °F 24.9 °F 30.0 °F 89% 29.66 in 5.0 mi WNW 10.4 mph - 0.00 in Snow Light Snow
1:01 AM 33.8 °F 24.3 °F 30.2 °F 87% 29.59 in 2.0 mi WNW 13.8 mph - 0.00 in Snow Light Snow
1:08 AM 33.8 °F 24.8 °F 30.2 °F 87% 29.59 in 1.5 mi WNW 12.7 mph - 0.01 in Snow Light Snow
1:15 AM 33.8 °F 24.8 °F 30.2 °F 87% 29.59 in 3.0 mi WNW 12.7 mph - 0.01 in Snow Light Snow
1:43 AM 33.8 °F 24.8 °F 30.2 °F 87% 29.60 in 10.0 mi WNW 12.7 mph - 0.01 in   Overcast
1:56 AM 33.1 °F 23.9 °F 30.0 °F 89% 29.67 in 10.0 mi WNW 12.7 mph - 0.01 in   Overcast
2:56 AM 32.0 °F 21.6 °F 28.0 °F 85% 29.69 in 10.0 mi WNW 15.0 mph - N/A   Overcast
3:56 AM 32.0 °F 21.6 °F 28.0 °F 85% 29.71 in 10.0 mi NNW 15.0 mph - 0.00 in   Overcast
4:17 AM 28.4 °F 17.5 °F 26.6 °F 93% 29.67 in 9.0 mi NNE 13.8 mph - N/A   Overcast
4:25 AM 26.6 °F 15.7 °F 24.8 °F 93% 29.68 in 2.5 mi North 12.7 mph - 0.00 in Snow Light Snow
4:38 AM 26.6 °F 15.7 °F 23.0 °F 86% 29.69 in 6.0 mi North 12.7 mph - 0.00 in   Overcast
4:56 AM 24.1 °F 9.4 °F 19.9 °F 84% 29.78 in 5.0 mi NNE 20.7 mph - 0.00 in Snow Light Snow
5:25 AM 21.2 °F 6.0 °F 17.6 °F 86% 29.74 in 9.0 mi North 19.6 mph - 0.00 in   Overcast
5:56 AM 19.9 °F 5.7 °F 16.0 °F 85% 29.85 in 9.0 mi North 16.1 mph - 0.00 in   Overcast
6:20 AM 17.6 °F 1.7 °F 12.2 °F 79% 29.79 in 10.0 mi North 18.4 mph - N/A   Overcast
6:56 AM 15.1 °F -0.6 °F 10.9 °F 84% 29.89 in 9.0 mi North 16.1 mph - N/A   Overcast
7:56 AM 12.0 °F -4.5 °F 7.0 °F 80% 29.94 in 7.0 mi NNE 16.1 mph - 0.00 in   Overcast
8:20 AM 12.2 °F -1.8 °F 6.8 °F 79% 29.88 in 10.0 mi North 11.5 mph - N/A   Overcast
8:56 AM 10.9 °F -4.1 °F 6.1 °F 81% 29.98 in 10.0 mi North 12.7 mph - N/A   Overcast
9:56 AM 10.9 °F -2.6 °F 5.0 °F 77% 30.01 in 10.0 mi North 10.4 mph - N/A   Overcast
10:56 AM 10.9 °F -1.8 °F 5.0 °F 77% 30.03 in 10.0 mi North 9.2 mph - N/A   Overcast
11:12 AM 10.4 °F -0.4 °F 5.0 °F 79% 29.96 in 10.0 mi North 6.9 mph - N/A   Overcast
11:56 AM 12.0 °F 2.7 °F 5.0 °F 73% 30.04 in 10.0 mi NNE 5.8 mph - N/A   Overcast
12:45 PM 12.2 °F - 5.0 °F 73% 29.97 in 10.0 mi Calm Calm - N/A   Overcast
12:56 PM 12.0 °F - 5.0 °F 73% 30.05 in 10.0 mi Calm Calm - N/A   Overcast
1:56 PM 12.0 °F 5.9 °F 6.1 °F 77% 30.05 in 10.0 mi NNW 3.5 mph - N/A   Overcast
2:19 PM 12.2 °F - 6.8 °F 79% 29.97 in 10.0 mi Calm Calm - N/A   Overcast
2:56 PM 12.9 °F - 6.1 °F 74% 30.05 in 10.0 mi Calm Calm - N/A   Overcast
3:56 PM 14.0 °F - 7.0 °F 74% 30.04 in 10.0 mi Calm Calm - N/A   Overcast
4:31 PM 14.0 °F 8.2 °F 6.8 °F 73% 29.97 in 10.0 mi SSE 3.5 mph - N/A   Overcast
4:56 PM 14.0 °F - 7.0 °F 74% 30.05 in 10.0 mi Calm Calm - N/A   Overcast
5:03 PM 14.0 °F 5.1 °F 6.8 °F 73% 29.96 in 10.0 mi SE 5.8 mph - N/A   Overcast
5:56 PM 14.0 °F 5.1 °F 8.1 °F 77% 30.05 in 10.0 mi South 5.8 mph - N/A   Overcast
6:56 PM 14.0 °F 5.1 °F 8.1 °F 77% 30.05 in 10.0 mi South 5.8 mph - N/A   Overcast
8:27 PM 14.0 °F 3.9 °F 8.6 °F 79% 29.94 in 10.0 mi SSE 6.9 mph - N/A   Overcast
8:56 PM 14.0 °F 5.1 °F 9.0 °F 80% 30.04 in 10.0 mi South 5.8 mph - N/A   Overcast
9:33 PM 10.4 °F -2.4 °F 6.8 °F 85% 29.94 in 10.0 mi South 9.2 mph - N/A   Mostly Cloudy
9:53 PM 10.4 °F 2.2 °F 6.8 °F 85% 29.94 in 10.0 mi South 4.6 mph - N/A   Scattered Clouds
9:56 PM 10.0 °F 0.4 °F 6.1 °F 84% 30.05 in 10.0 mi South 5.8 mph - N/A   Scattered Clouds
10:56 PM 12.0 °F 2.7 °F 8.1 °F 84% 30.04 in 10.0 mi South 5.8 mph - N/A   Overcast
11:56 PM 14.0 °F 3.9 °F 10.0 °F 84% 30.03 in 10.0 mi South 6.9 mph - N/A   Overcast